WetterOnline ( https://www.wetteronline.de )

Wetter aktuell Brünn

Aktuelles Wetter: Brünn - Turany (246m)

6-stündlich | Neueste Meldungen
Ortszeit Temperatur Wetter
Di, 22.10. 14:00 20.1° C leicht bewölkt
Di, 22.10. 8:00 9.6° C leicht bewölkt
Di, 22.10. 2:00 11.2° C leicht bewölkt
Mo, 21.10. 20:00 15.6° C fast wolkenlos
Mo, 21.10. 14:00 20.8° C leicht bewölkt
Mo, 21.10. 8:00 11.4° C leicht bewölkt
Mo, 21.10. 2:00 14.0° C leicht bewölkt
So, 20.10. 20:00 16.8° C leicht bewölkt
Ortszeit Temperatur Wetter
Di, 22.10. 15:30 21° C -
Di, 22.10. 15:00 21.5° C leicht bewölkt
Di, 22.10. 14:30 21° C -
Di, 22.10. 14:00 20.1° C leicht bewölkt
Di, 22.10. 13:30 20° C -
Di, 22.10. 13:00 19.2° C leicht bewölkt
Di, 22.10. 12:30 19° C -
Di, 22.10. 12:00 18.8° C leicht bewölkt
Ortszeit Relative Feuchte Sichtweite
Di, 22.10. 14:00 71% 13 km
Di, 22.10. 8:00 96% 7 km
Di, 22.10. 2:00 96% 15 km
Mo, 21.10. 20:00 83% 25 km
Mo, 21.10. 14:00 62% 25 km
Mo, 21.10. 8:00 92% 20 km
Mo, 21.10. 2:00 83% 35 km
So, 20.10. 20:00 74% 35 km
Ortszeit Relative Feuchte Sichtweite
Di, 22.10. 15:30 69% >10 km
Di, 22.10. 15:00 64% 14 km
Di, 22.10. 14:30 69% >10 km
Di, 22.10. 14:00 71% 13 km
Di, 22.10. 13:30 68% >10 km
Di, 22.10. 13:00 72% 12 km
Di, 22.10. 12:30 73% >10 km
Di, 22.10. 12:00 74% 11 km
Ortszeit Niederschlagsmenge Niederschlagsart
Di, 22.10. 14:00 0.0 l/m2 in 6 Std. Nebel
Di, 22.10. 8:00 0.0 l/m2 in 12 Std. -
Di, 22.10. 2:00 0.0 l/m2 in 6 Std. -
Mo, 21.10. 20:00 0.0 l/m2 in 12 Std. -
Mo, 21.10. 14:00 0.0 l/m2 in 6 Std. -
Mo, 21.10. 8:00 0.0 l/m2 in 12 Std. -
Mo, 21.10. 2:00 0.0 l/m2 in 6 Std. -
So, 20.10. 20:00 0.0 l/m2 in 12 Std. -
Ortszeit Niederschlagsmenge Niederschlagsart
Di, 22.10. 15:30 keine Meldung -
Di, 22.10. 15:00 0.0 l/m2 in 1 Std. -
Di, 22.10. 14:30 keine Meldung -
Di, 22.10. 14:00 0.0 l/m2 in 1 Std. Nebel
Di, 22.10. 13:30 keine Meldung -
Di, 22.10. 13:00 0.0 l/m2 in 1 Std. -
Di, 22.10. 12:30 keine Meldung -
Di, 22.10. 12:00 0.0 l/m2 in 1 Std. -
Ortszeit Stärke Spitze Richtung
km/h Bft. km/h Grad Sektor
Di, 22.10. 14:00 7 2 - 310° NW
Di, 22.10. 8:00 7 2 - 310° NW
Di, 22.10. 2:00 7 2 - 330° NW
Mo, 21.10. 20:00 11 2 - 10° N
Mo, 21.10. 14:00 11 2 - 130° SO
Mo, 21.10. 8:00 7 2 - 100° O
Mo, 21.10. 2:00 11 2 108 70° O
So, 20.10. 20:00 14 3 - 70° O
Ortszeit Stärke Spitze Richtung
km/h Bft. km/h Grad Sektor
Di, 22.10. 15:30 2 1 - uml. uml.
Di, 22.10. 15:00 4 1 - 190° S
Di, 22.10. 14:30 2 1 - uml. uml.
Di, 22.10. 14:00 7 2 - 310° NW
Di, 22.10. 13:30 4 1 - uml. uml.
Di, 22.10. 13:00 4 1 - 200° S
Di, 22.10. 12:30 6 1 - 120° SO
Di, 22.10. 12:00 4 1 - 120° SO
Ortszeit Untergrenze Bedeckung Gattung
total tief tief mittel hoch
Di, 22.10. 14:00 7500 m 5/8 0/8 - - Ci
Di, 22.10. 8:00 7500 m 3/8 0/8 - - Ci
Di, 22.10. 2:00 7500 m 2/8 0/8 - - Ci
Mo, 21.10. 20:00 7500 m 1/8 0/8 - - Ci
Mo, 21.10. 14:00 7500 m 4/8 0/8 - - Ci
Mo, 21.10. 8:00 7500 m 2/8 0/8 - - Ci
Mo, 21.10. 2:00 7500 m 5/8 0/8 - - Ci
So, 20.10. 20:00 7500 m 5/8 0/8 - - Ci
Ortszeit Bedeckungsgrad in Achtel und Wolkenuntergrenze
Di, 22.10. 15:30 keine Wolken(unter 1500 m)
Di, 22.10. 15:00 4(7500m)
Di, 22.10. 14:30 keine Wolken(unter 1500 m)
Di, 22.10. 14:00 5(7500m)
Di, 22.10. 13:30 keine Wolken(unter 1500 m)
Di, 22.10. 13:00 5(7500m)
Di, 22.10. 12:30 keine Wolken(unter 1500 m)
Di, 22.10. 12:00 5(7500m)
Ortszeit Luftdruck NN (hPa) Tendenz (hPa in 3 Std.)
Di, 22.10. 14:00 1023 - 0,5
Di, 22.10. 8:00 1024 + 1,2
Di, 22.10. 2:00 1022 + 0,3
Mo, 21.10. 20:00 1021 + 1,0
Mo, 21.10. 14:00 1019 + 0,1
Mo, 21.10. 8:00 1018 + 1,5
Mo, 21.10. 2:00 1015 + 0,8
So, 20.10. 20:00 1013 - 0,6
Ortszeit Luftdruck NN (hPa) Tendenz (hPa in 3 Std.)
Di, 22.10. 15:30 1022 keine Meldung
Di, 22.10. 15:00 1022 - 0,7
Di, 22.10. 14:30 1023 keine Meldung
Di, 22.10. 14:00 1023 - 0,5
Di, 22.10. 13:30 1023 keine Meldung
Di, 22.10. 13:00 1023 - 0,7
Di, 22.10. 12:30 1023 keine Meldung
Di, 22.10. 12:00 1023 - 0,5
Ortszeit Schneehöhe (cm)
Di, 22.10. 14:00 -
Di, 22.10. 8:00 -
Di, 22.10. 2:00 -
Mo, 21.10. 20:00 -
Mo, 21.10. 14:00 -
Mo, 21.10. 8:00 -
Mo, 21.10. 2:00 -
So, 20.10. 20:00 -
Ortszeit Schneehöhe (cm)
Di, 22.10. 15:30 -
Di, 22.10. 15:00 -
Di, 22.10. 14:30 -
Di, 22.10. 14:00 -
Di, 22.10. 13:30 -
Di, 22.10. 13:00 -
Di, 22.10. 12:30 -
Di, 22.10. 12:00 -
Link zu dieser Seite / Seite empfehlen

Das Wetter in ...